FW3090 Weather Reports


Display with metric or nautical units.
time (UTC)temp
F
wind
direction
speed
MPH
gust
MPH
rain 1hr
in
rain 24hr
in
rain mn
in
humidity
%
barometer
mb
20260504174003 71 288 9.0 16.0 0.00 0.00 0.00 37 997.2
20260504173503 72 302 8.0 13.0 0.00 0.00 0.00 37 997.3
20260504173001 72 257 9.0 17.0 0.00 0.00 0.00 39 997.2
20260504172456 71 313 11.0 17.0 0.00 0.00 0.00 39 997.3
20260504171949 71 277 11.0 15.0 0.00 0.00 0.00 37 997.5
20260504171444 72 277 10.0 15.0 0.00 0.00 0.00 39 997.4
20260504170938 71 265 9.0 14.0 0.00 0.00 0.00 40 997.3
20260504170431 71 267 9.0 14.0 0.00 0.00 0.00 39 997.3
20260504160319 71 245 10.0 18.0 0.00 0.00 0.00 40 997.2
20260504150714 68 264 10.0 14.0 0.00 0.00 0.00 41 997.2
20260504150208 68 281 10.0 15.0 0.00 0.00 0.00 41 997.0
20260504141108 64 266 5.0 12.0 0.00 0.00 0.00 48 997.0
20260504140601 64 273 5.0 9.0 0.00 0.00 0.00 47 997.0
20260504130449 60 245 5.0 11.0 0.00 0.00 0.00 47 997.0
20260504110235 42 172 0.0 3.0 0.00 0.00 0.00 80 998.0
20260504100228 43 92 1.0 3.0 0.00 0.00 0.00 80 998.6
20260504081658 42 80 0.0 0.0 0.00 0.00 0.00 81 1000.4
20260504081153 42 66 0.0 0.0 0.00 0.00 0.00 81 1000.5
20260504080647 42 51 0.0 0.0 0.00 0.00 0.00 81 1000.6
20260504080404 42 50 0.0 0.0 0.00 0.00 0.00 81 1000.6
20260504050337 49 298 0.0 0.0 0.00 0.00 0.00 67 1003.1
20260504045836 50 298 0.0 0.0 0.00 0.00 0.00 67 1003.1
20260504045335 50 298 0.0 0.0 0.00 0.00 0.00 67 1003.2
20260504044835 50 298 0.0 0.0 0.00 0.00 0.00 68 1003.2
20260504044335 50 298 0.0 0.0 0.00 0.00 0.00 66 1003.4
20260504044059 50 298 0.0 0.0 0.00 0.00 0.00 67 1003.5
20260504043336 50 298 0.0 0.0 0.00 0.00 0.00 70 1003.5
20260504042832 50 298 0.0 0.0 0.00 0.00 0.00 68 1003.5
20260504042326 50 298 0.0 0.0 0.00 0.00 0.00 61 1003.5
20260504041820 50 298 0.0 0.0 0.00 0.00 0.00 60 1003.5
20260504041315 51 298 0.0 0.0 0.00 0.00 0.00 60 1003.7
20260504040808 51 298 0.0 0.0 0.00 0.00 0.00 61 1003.6
20260504040527 51 298 0.0 0.0 0.00 0.00 0.00 66 1003.7
20260504035757 51 298 0.0 0.0 0.00 0.00 0.00 62 1003.7
20260504035250 51 298 0.0 0.0 0.00 0.00 0.00 60 1003.8
20260504035003 51 298 0.0 0.0 0.00 0.00 0.00 59 1003.9
20260504034239 52 298 0.0 0.0 0.00 0.00 0.00 58 1003.9
20260504033732 52 298 0.0 0.0 0.00 0.00 0.00 56 1003.9
20260504033227 52 298 0.0 0.0 0.00 0.00 0.00 55 1003.9
20260504032720 52 298 0.0 0.0 0.00 0.00 0.00 57 1004.0
20260504032440 53 298 0.0 0.0 0.00 0.00 0.00 58 1003.9
20260504031708 53 298 0.0 0.0 0.00 0.00 0.00 56 1004.1
20260504031203 54 298 0.0 0.0 0.00 0.00 0.00 53 1004.1
20260504030927 53 298 0.0 1.0 0.00 0.00 0.00 54 1004.2
20260504030150 53 298 1.0 2.0 0.00 0.00 0.00 54 1004.2
20260504025645 53 298 1.0 2.0 0.00 0.00 0.00 54 1004.2
20260504025139 53 298 0.0 2.0 0.00 0.00 0.00 58 1004.2
20260504024632 54 298 0.0 0.0 0.00 0.00 0.00 58 1004.3
20260504024126 55 298 0.0 0.0 0.00 0.00 0.00 50 1004.3
20260504023621 56 298 0.0 0.0 0.00 0.00 0.00 50 1004.3
20260504023114 56 298 0.0 0.0 0.00 0.00 0.00 47 1004.2
20260504022609 56 298 0.0 0.0 0.00 0.00 0.00 45 1004.2
20260504022102 57 298 0.0 0.0 0.00 0.00 0.00 47 1004.3
20260504021557 58 298 0.0 0.0 0.00 0.00 0.00 43 1004.3
20260504021050 58 298 0.0 1.0 0.00 0.00 0.00 41 1004.2
20260504020545 59 298 0.0 1.0 0.00 0.00 0.00 41 1004.1
20260504020038 59 298 0.0 2.0 0.00 0.00 0.00 44 1004.0
20260504015533 59 298 1.0 2.0 0.00 0.00 0.00 40 1004.1
20260504015027 60 298 1.0 2.0 0.00 0.00 0.00 40 1004.1
20260504014520 60 298 0.0 2.0 0.00 0.00 0.00 39 1004.1
20260504014021 60 298 0.0 0.0 0.00 0.00 0.00 39 1004.1
20260504013519 60 298 0.0 0.0 0.00 0.00 0.00 39 1004.1
20260504013240 60 298 0.0 0.0 0.00 0.00 0.00 39 1004.1
20260504012518 61 298 0.0 0.0 0.00 0.00 0.00 40 1004.1
20260504012017 61 298 0.0 2.0 0.00 0.00 0.00 40 1004.0
20260504011517 62 298 1.0 3.0 0.00 0.00 0.00 39 1003.8
20260504011015 64 298 1.0 3.0 0.00 0.00 0.00 34 1003.7
20260504010515 64 298 1.0 3.0 0.00 0.00 0.00 35 1003.8
20260504010014 64 298 2.0 4.0 0.00 0.00 0.00 34 1003.8
20260504005511 65 298 3.0 4.0 0.00 0.00 0.00 33 1003.7
20260504005009 66 298 3.0 4.0 0.00 0.00 0.00 32 1003.7
20260504004507 67 298 3.0 5.0 0.00 0.00 0.00 32 1003.7
20260504004004 68 298 4.0 7.0 0.00 0.00 0.00 30 1003.6
20260504003503 68 296 4.0 9.0 0.00 0.00 0.00 30 1003.7
20260504003002 69 299 6.0 11.0 0.00 0.00 0.00 29 1003.6
20260504002459 69 302 7.0 11.0 0.00 0.00 0.00 28 1003.6
20260504001959 69 309 7.0 13.0 0.00 0.00 0.00 28 1003.5
20260504001459 70 309 7.0 13.0 0.00 0.00 0.00 27 1003.6
20260504000959 70 303 8.0 12.0 0.00 0.00 0.00 29 1003.4
20260504000459 70 305 8.0 13.0 0.00 0.00 0.00 30 1003.4
20260503235952 70 311 7.0 13.0 0.00 0.00 0.00 30 1003.4
20260503235447 70 302 7.0 11.0 0.00 0.00 0.00 31 1003.4
20260503234940 70 290 7.0 12.0 0.00 0.00 0.00 31 1003.4
20260503234703 71 297 6.0 12.0 0.00 0.00 0.00 30 1003.4
20260503233929 71 302 5.0 10.0 0.00 0.00 0.00 31 1003.4
20260503233423 71 294 4.0 9.0 0.00 0.00 0.00 30 1003.4
20260503232916 71 294 4.0 9.0 0.00 0.00 0.00 31 1003.5
20260503232411 71 294 4.0 9.0 0.00 0.00 0.00 30 1003.5
20260503231905 71 296 4.0 11.0 0.00 0.00 0.00 30 1003.6
20260503231359 71 24 4.0 11.0 0.00 0.00 0.00 29 1003.6
20260503230853 71 264 5.0 13.0 0.00 0.00 0.00 30 1003.6
20260503230348 71 334 6.0 13.0 0.00 0.00 0.00 33 1003.6
20260503225848 71 308 6.0 14.0 0.00 0.00 0.00 30 1003.5
20260503225348 71 331 6.0 14.0 0.00 0.00 0.00 31 1003.6
20260503224848 71 301 4.0 13.0 0.00 0.00 0.00 30 1003.5
20260503224348 71 287 5.0 11.0 0.00 0.00 0.00 31 1003.4
20260503223846 72 324 6.0 14.0 0.00 0.00 0.00 32 1003.5
20260503223346 72 313 6.0 14.0 0.00 0.00 0.00 30 1003.5
20260503222846 72 286 5.0 13.0 0.00 0.00 0.00 29 1003.4
20260503222345 72 279 5.0 13.0 0.00 0.00 0.00 32 1003.4
20260503221843 72 32 7.0 13.0 0.00 0.00 0.00 28 1003.4
20260503221341 72 323 9.0 15.0 0.00 0.00 0.00 29 1003.4
20260503220838 72 304 9.0 15.0 0.00 0.00 0.00 28 1003.3
20260503220339 73 293 8.0 14.0 0.00 0.00 0.00 29 1003.5
20260503220100 72 311 9.0 15.0 0.00 0.00 0.00 28 1003.4
20260503215339 73 307 8.0 15.0 0.00 0.00 0.00 27 1003.4
20260503214838 73 275 8.0 14.0 0.00 0.00 0.00 29 1003.3
20260503214602 73 280 10.0 17.0 0.00 0.00 0.00 31 1003.4
20260503214324 73 298 8.0 17.0 0.00 0.00 0.00 31 1003.4
20260503213338 73 290 7.0 11.0 0.00 0.00 0.00 32 1003.4
20260503212834 73 309 6.0 11.0 0.00 0.00 0.00 32 1003.4
20260503212558 73 265 4.0 11.0 0.00 0.00 0.00 34 1003.4
20260503211834 73 290 4.0 11.0 0.00 0.00 0.00 34 1003.5
20260503211334 73 22 6.0 13.0 0.00 0.00 0.00 32 1003.7
20260503210834 73 343 7.0 13.0 0.00 0.00 0.00 33 1003.7
20260503210334 73 298 6.0 11.0 0.00 0.00 0.00 32 1003.7
20260503205834 73 298 7.0 15.0 0.00 0.00 0.00 31 1003.8
20260503205334 73 295 9.0 15.0 0.00 0.00 0.00 31 1003.8
20260503204834 74 320 7.0 13.0 0.00 0.00 0.00 31 1003.9
20260503204330 74 283 6.0 13.0 0.00 0.00 0.00 34 1003.8
20260503203830 73 317 4.0 13.0 0.00 0.00 0.00 31 1003.9
20260503203330 73 288 4.0 12.0 0.00 0.00 0.00 33 1003.9
20260503203059 74 269 7.0 17.0 0.00 0.00 0.00 31 1004.0
20260503202331 74 304 7.0 17.0 0.00 0.00 0.00 28 1004.0
20260503201831 74 269 7.0 14.0 0.00 0.00 0.00 30 1004.0
20260503201817 74 321 9.0 15.0 0.00 0.00 0.00 31 1004.0
20260503200831 73 304 8.0 15.0 0.00 0.00 0.00 33 1004.0
20260503200331 74 293 8.0 16.0 0.00 0.00 0.00 33 1004.0
20260503200041 74 259 7.0 16.0 0.00 0.00 0.00 34 1004.1
20260503195324 74 279 6.0 10.0 0.00 0.00 0.00 35 1004.1
20260503194825 74 266 5.0 11.0 0.00 0.00 0.00 34 1004.1
20260503194324 74 298 5.0 11.0 0.00 0.00 0.00 34 1004.2
20260503193824 74 270 5.0 10.0 0.00 0.00 0.00 33 1004.2
20260503193324 74 273 7.0 12.0 0.00 0.00 0.00 35 1004.2
20260503192824 74 278 8.0 13.0 0.00 0.00 0.00 33 1004.3
20260503192325 74 296 6.0 13.0 0.00 0.00 0.00 31 1004.2
20260503191826 74 267 5.0 9.0 0.00 0.00 0.00 38 1004.2
20260503191325 74 267 5.0 9.0 0.00 0.00 0.00 35 1004.3
20260503191046 73 282 4.0 9.0 0.00 0.00 0.00 35 1004.4
20260503190324 74 325 4.0 11.0 0.00 0.00 0.00 36 1004.4
20260503185825 73 300 5.0 12.0 0.00 0.00 0.00 35 1004.5
20260503185544 73 328 5.0 12.0 0.00 0.00 0.00 34 1004.5
20260503184818 72 244 6.0 10.0 0.00 0.00 0.00 35 1004.5
20260503184312 73 261 6.0 13.0 0.00 0.00 0.00 35 1004.6
20260503184029 73 308 7.0 13.0 0.00 0.00 0.00 35 1004.6
20260503183300 73 290 5.0 11.0 0.00 0.00 0.00 37 1004.6
20260503183020 72 277 5.0 10.0 0.00 0.00 0.00 37 1004.5
20260503182248 71 242 6.0 9.0 0.00 0.00 0.00 38 1004.6
20260503181741 72 242 5.0 10.0 0.00 0.00 0.00 37 1004.8
20260503181236 72 255 4.0 10.0 0.00 0.00 0.00 34 1004.7
20260503180730 72 291 5.0 10.0 0.00 0.00 0.00 39 1004.8
20260503180224 72 286 6.0 12.0 0.00 0.00 0.00 35 1004.9
20260503175718 72 235 5.0 12.0 0.00 0.00 0.00 37 1004.9
20260503175211 71 290 5.0 10.0 0.00 0.00 0.00 37 1004.9
20260503174929 70 261 5.0 10.0 0.00 0.00 0.00 43 1005.0